| time (UTC) | temp F | wind direction | speed MPH | gust MPH | rain 1hr in | rain 24hr in | rain mn in | humidity % | barometer mb |
| 20260504141041 | 83 | 120 | 6.0 | 14.0 | 0.00 | 0.00 | 0.00 | 78 | 1011.8 |
| 20260504140540 | 83 | 150 | 12.0 | 13.0 | 0.00 | 0.00 | 0.00 | 78 | 1011.7 |
| 20260504130541 | 85 | 105 | 5.0 | 14.0 | 0.00 | 0.00 | 0.00 | 69 | 1011.4 |
| 20260504110541 | 86 | 128 | 4.0 | 16.0 | 0.00 | 0.00 | 0.00 | 69 | 1010.8 |
| 20260504100541 | 88 | 143 | 2.0 | 12.0 | 0.00 | 0.00 | 0.00 | 62 | 1009.8 |
| 20260504081541 | 92 | 82 | 9.0 | 16.0 | 0.00 | 0.00 | 0.00 | 58 | 1009.0 |
| 20260504081041 | 92 | 107 | 11.0 | 16.0 | 0.00 | 0.00 | 0.00 | 59 | 1008.9 |
| 20260504080541 | 92 | 125 | 5.0 | 18.0 | 0.00 | 0.00 | 0.00 | 59 | 1009.0 |
| 20260504045541 | 92 | 169 | 2.0 | 13.0 | 0.00 | 0.00 | 0.00 | 57 | 1011.1 |
| 20260504045041 | 91 | 89 | 1.0 | 14.0 | 0.00 | 0.00 | 0.00 | 60 | 1011.1 |
| 20260504044041 | 91 | 172 | 3.0 | 11.0 | 0.00 | 0.00 | 0.00 | 59 | 1011.5 |
| 20260504043041 | 91 | 68 | 6.0 | 15.0 | 0.00 | 0.00 | 0.00 | 59 | 1011.7 |
| 20260504042541 | 91 | 133 | 6.0 | 14.0 | 0.00 | 0.00 | 0.00 | 58 | 1011.7 |
| 20260504042041 | 91 | 135 | 6.0 | 14.0 | 0.00 | 0.00 | 0.00 | 57 | 1011.7 |
| 20260504041541 | 91 | 194 | 5.0 | 13.0 | 0.00 | 0.00 | 0.00 | 60 | 1011.8 |
| 20260504041042 | 91 | 152 | 4.0 | 12.0 | 0.00 | 0.00 | 0.00 | 60 | 1012.1 |
| 20260504040541 | 91 | 150 | 5.0 | 12.0 | 0.00 | 0.00 | 0.00 | 59 | 1011.9 |
| 20260504040041 | 92 | 134 | 5.0 | 13.0 | 0.00 | 0.00 | 0.00 | 59 | 1012.2 |
| 20260504035541 | 91 | 109 | 3.0 | 13.0 | 0.00 | 0.00 | 0.00 | 60 | 1012.2 |
| 20260504034541 | 90 | 143 | 3.0 | 12.0 | 0.00 | 0.00 | 0.00 | 61 | 1012.5 |
| 20260504034041 | 90 | 124 | 7.0 | 12.0 | 0.00 | 0.00 | 0.00 | 60 | 1012.5 |
| 20260504033541 | 90 | 133 | 4.0 | 11.0 | 0.00 | 0.00 | 0.00 | 61 | 1012.4 |
| 20260504033041 | 90 | 117 | 7.0 | 11.0 | 0.00 | 0.00 | 0.00 | 62 | 1012.6 |
| 20260504032541 | 90 | 151 | 6.0 | 11.0 | 0.00 | 0.00 | 0.00 | 62 | 1012.7 |
| 20260504032041 | 90 | 200 | 1.0 | 11.0 | 0.00 | 0.00 | 0.00 | 64 | 1012.8 |
| 20260504031541 | 91 | 211 | 3.0 | 13.0 | 0.00 | 0.00 | 0.00 | 63 | 1012.6 |
| 20260504031041 | 91 | 42 | 2.0 | 13.0 | 0.00 | 0.00 | 0.00 | 64 | 1012.7 |
| 20260504030541 | 90 | 92 | 8.0 | 14.0 | 0.00 | 0.00 | 0.00 | 63 | 1012.7 |
| 20260504030042 | 89 | 79 | 7.0 | 14.0 | 0.00 | 0.00 | 0.00 | 63 | 1012.8 |
| 20260504025541 | 90 | 94 | 4.0 | 13.0 | 0.00 | 0.00 | 0.00 | 63 | 1012.9 |
| 20260504025041 | 90 | 151 | 4.0 | 14.0 | 0.00 | 0.00 | 0.00 | 64 | 1012.9 |
| 20260504024541 | 89 | 93 | 5.0 | 14.0 | 0.00 | 0.00 | 0.00 | 64 | 1012.8 |
| 20260504024041 | 89 | 107 | 4.0 | 12.0 | 0.00 | 0.00 | 0.00 | 64 | 1013.1 |
| 20260504023541 | 89 | 92 | 5.0 | 12.0 | 0.00 | 0.00 | 0.00 | 64 | 1012.8 |
| 20260504023042 | 89 | 142 | 8.0 | 12.0 | 0.00 | 0.00 | 0.00 | 65 | 1013.0 |
| 20260504022541 | 89 | 92 | 4.0 | 12.0 | 0.00 | 0.00 | 0.00 | 66 | 1013.1 |
| 20260504022042 | 89 | 161 | 9.0 | 11.0 | 0.00 | 0.00 | 0.00 | 64 | 1013.0 |
| 20260504021541 | 88 | 152 | 4.0 | 14.0 | 0.00 | 0.00 | 0.00 | 67 | 1013.1 |
| 20260504021041 | 87 | 102 | 6.0 | 14.0 | 0.00 | 0.00 | 0.00 | 67 | 1013.2 |
| 20260504020541 | 87 | 137 | 4.0 | 12.0 | 0.00 | 0.00 | 0.00 | 67 | 1013.2 |
| 20260504020041 | 87 | 102 | 4.0 | 12.0 | 0.00 | 0.00 | 0.00 | 69 | 1013.4 |
| 20260504015042 | 87 | 107 | 6.0 | 12.0 | 0.00 | 0.00 | 0.00 | 68 | 1013.7 |
| 20260504014541 | 86 | 106 | 4.0 | 13.0 | 0.00 | 0.00 | 0.00 | 70 | 1013.5 |
| 20260504013541 | 86 | 110 | 9.0 | 12.0 | 0.00 | 0.00 | 0.00 | 70 | 1013.3 |
| 20260504013042 | 86 | 122 | 3.0 | 10.0 | 0.00 | 0.00 | 0.00 | 70 | 1013.6 |
| 20260504012541 | 85 | 93 | 5.0 | 11.0 | 0.00 | 0.00 | 0.00 | 71 | 1013.6 |
| 20260504011540 | 85 | 139 | 4.0 | 12.0 | 0.00 | 0.00 | 0.00 | 71 | 1013.6 |
| 20260504011041 | 85 | 142 | 5.0 | 14.0 | 0.00 | 0.00 | 0.00 | 71 | 1013.4 |
| 20260504010540 | 85 | 107 | 7.0 | 14.0 | 0.00 | 0.00 | 0.00 | 70 | 1013.3 |
| 20260504010041 | 85 | 157 | 6.0 | 12.0 | 0.00 | 0.00 | 0.00 | 71 | 1013.4 |
| 20260504005541 | 85 | 116 | 5.0 | 12.0 | 0.00 | 0.00 | 0.00 | 72 | 1013.5 |
| 20260504005041 | 85 | 122 | 4.0 | 13.0 | 0.00 | 0.00 | 0.00 | 72 | 1013.5 |
| 20260504004542 | 84 | 41 | 3.0 | 13.0 | 0.00 | 0.00 | 0.00 | 73 | 1013.5 |
| 20260504003541 | 83 | 130 | 4.0 | 9.0 | 0.00 | 0.00 | 0.00 | 75 | 1013.5 |
| 20260504003041 | 83 | 99 | 5.0 | 10.0 | 0.00 | 0.00 | 0.00 | 75 | 1013.4 |
| 20260504002541 | 83 | 85 | 5.0 | 14.0 | 0.00 | 0.00 | 0.00 | 76 | 1013.5 |
| 20260504001541 | 83 | 118 | 6.0 | 13.0 | 0.00 | 0.00 | 0.00 | 75 | 1013.2 |
| 20260504000541 | 83 | 108 | 7.0 | 15.0 | 0.00 | 0.00 | 0.00 | 75 | 1013.0 |
| 20260504000041 | 83 | 106 | 8.0 | 15.0 | 0.00 | 0.00 | 0.00 | 75 | 1013.0 |
| 20260503235541 | 83 | 111 | 9.0 | 13.0 | 0.00 | 0.00 | 0.00 | 74 | 1013.1 |
| 20260503235042 | 83 | 146 | 4.0 | 16.0 | 0.00 | 0.00 | 0.00 | 75 | 1012.9 |
| 20260503234541 | 83 | 98 | 2.0 | 17.0 | 0.00 | 0.00 | 0.00 | 76 | 1012.7 |
| 20260503234041 | 83 | 92 | 7.0 | 17.0 | 0.00 | 0.00 | 0.00 | 75 | 1012.9 |
| 20260503233541 | 84 | 102 | 8.0 | 15.0 | 0.00 | 0.00 | 0.00 | 75 | 1012.6 |
| 20260503233041 | 84 | 110 | 4.0 | 15.0 | 0.00 | 0.00 | 0.00 | 74 | 1012.7 |
| 20260503232541 | 84 | 108 | 3.0 | 15.0 | 0.00 | 0.00 | 0.00 | 74 | 1012.4 |
| 20260503232041 | 84 | 99 | 9.0 | 13.0 | 0.00 | 0.00 | 0.00 | 74 | 1012.5 |
| 20260503231541 | 84 | 110 | 5.0 | 12.0 | 0.00 | 0.00 | 0.00 | 73 | 1012.4 |
| 20260503231041 | 84 | 113 | 4.0 | 12.0 | 0.00 | 0.00 | 0.00 | 73 | 1012.1 |
| 20260503230541 | 84 | 131 | 6.0 | 8.0 | 0.00 | 0.00 | 0.00 | 72 | 1012.0 |
| 20260503230041 | 83 | 114 | 5.0 | 8.0 | 0.00 | 0.00 | 0.00 | 73 | 1012.1 |
| 20260503225541 | 83 | 139 | 2.0 | 5.0 | 0.00 | 0.00 | 0.00 | 72 | 1012.1 |
| 20260503225040 | 83 | 87 | 4.0 | 7.0 | 0.00 | 0.00 | 0.00 | 72 | 1012.1 |
| 20260503224541 | 82 | 107 | 2.0 | 7.0 | 0.00 | 0.00 | 0.00 | 72 | 1012.2 |
| 20260503224041 | 82 | 105 | 4.0 | 6.0 | 0.00 | 0.00 | 0.00 | 73 | 1012.0 |
| 20260503223541 | 82 | 103 | 5.0 | 6.0 | 0.00 | 0.00 | 0.00 | 72 | 1012.0 |
| 20260503223040 | 82 | 164 | 2.0 | 6.0 | 0.00 | 0.00 | 0.00 | 73 | 1011.8 |
| 20260503222541 | 82 | 118 | 3.0 | 5.0 | 0.00 | 0.00 | 0.00 | 73 | 1011.8 |
| 20260503222041 | 82 | 115 | 5.0 | 5.0 | 0.00 | 0.00 | 0.00 | 74 | 1011.8 |
| 20260503221541 | 82 | 141 | 3.0 | 4.0 | 0.00 | 0.00 | 0.00 | 75 | 1011.8 |
| 20260503221041 | 82 | 150 | 3.0 | 5.0 | 0.00 | 0.00 | 0.00 | 75 | 1011.6 |
| 20260503220541 | 81 | 168 | 2.0 | 5.0 | 0.00 | 0.00 | 0.00 | 74 | 1011.8 |
| 20260503220041 | 81 | 100 | 1.0 | 7.0 | 0.00 | 0.00 | 0.00 | 74 | 1011.6 |
| 20260503215542 | 81 | 88 | 2.0 | 7.0 | 0.00 | 0.00 | 0.00 | 74 | 1011.7 |
| 20260503214541 | 81 | 110 | 4.0 | 6.0 | 0.00 | 0.00 | 0.00 | 75 | 1011.6 |
| 20260503214041 | 81 | 136 | 2.0 | 6.0 | 0.00 | 0.00 | 0.00 | 75 | 1011.5 |
| 20260503213542 | 81 | 131 | 2.0 | 5.0 | 0.00 | 0.00 | 0.00 | 75 | 1011.8 |
| 20260503213041 | 81 | 130 | 2.0 | 5.0 | 0.00 | 0.00 | 0.00 | 75 | 1011.6 |
| 20260503212041 | 81 | 94 | 2.0 | 7.0 | 0.00 | 0.00 | 0.00 | 74 | 1011.5 |
| 20260503211541 | 81 | 122 | 1.0 | 6.0 | 0.00 | 0.00 | 0.00 | 75 | 1011.8 |
| 20260503211041 | 81 | 101 | 4.0 | 6.0 | 0.00 | 0.00 | 0.00 | 74 | 1011.9 |
| 20260503210041 | 81 | 98 | 1.0 | 6.0 | 0.00 | 0.00 | 0.00 | 75 | 1011.8 |
| 20260503205541 | 81 | 95 | 2.0 | 7.0 | 0.00 | 0.00 | 0.00 | 74 | 1011.6 |
| 20260503205041 | 81 | 78 | 5.0 | 8.0 | 0.00 | 0.00 | 0.00 | 74 | 1011.4 |
| 20260503204541 | 81 | 109 | 6.0 | 8.0 | 0.00 | 0.00 | 0.00 | 74 | 1011.4 |
| 20260503204041 | 82 | 108 | 4.0 | 9.0 | 0.00 | 0.00 | 0.00 | 74 | 1011.5 |
| 20260503203041 | 82 | 97 | 3.0 | 9.0 | 0.00 | 0.00 | 0.00 | 74 | 1011.3 |
| 20260503202541 | 82 | 110 | 4.0 | 8.0 | 0.00 | 0.00 | 0.00 | 74 | 1011.3 |
| 20260503202040 | 82 | 115 | 4.0 | 8.0 | 0.00 | 0.00 | 0.00 | 74 | 1011.3 |
| 20260503201542 | 82 | 103 | 2.0 | 8.0 | 0.00 | 0.00 | 0.00 | 74 | 1011.3 |
| 20260503201041 | 82 | 98 | 5.0 | 8.0 | 0.00 | 0.00 | 0.00 | 74 | 1011.3 |
| 20260503200541 | 82 | 115 | 3.0 | 10.0 | 0.00 | 0.00 | 0.00 | 73 | 1011.4 |
| 20260503200041 | 82 | 68 | 3.0 | 10.0 | 0.00 | 0.00 | 0.00 | 73 | 1011.2 |
| 20260503195541 | 82 | 125 | 3.0 | 10.0 | 0.00 | 0.00 | 0.00 | 72 | 1011.2 |
| 20260503195041 | 82 | 74 | 5.0 | 11.0 | 0.00 | 0.00 | 0.00 | 73 | 1011.2 |
| 20260503194540 | 82 | 87 | 5.0 | 12.0 | 0.00 | 0.00 | 0.00 | 73 | 1011.2 |
| 20260503194041 | 82 | 111 | 3.0 | 12.0 | 0.00 | 0.00 | 0.00 | 73 | 1011.0 |
| 20260503193541 | 82 | 81 | 4.0 | 12.0 | 0.00 | 0.00 | 0.00 | 75 | 1011.0 |
| 20260503193041 | 82 | 79 | 7.0 | 13.0 | 0.00 | 0.00 | 0.00 | 74 | 1010.8 |
| 20260503192041 | 82 | 115 | 3.0 | 16.0 | 0.00 | 0.00 | 0.00 | 75 | 1010.8 |
| 20260503191541 | 82 | 114 | 3.0 | 15.0 | 0.00 | 0.00 | 0.00 | 74 | 1010.8 |
| 20260503191041 | 82 | 113 | 7.0 | 16.0 | 0.00 | 0.00 | 0.00 | 75 | 1010.6 |
| 20260503190541 | 82 | 99 | 4.0 | 16.0 | 0.00 | 0.00 | 0.00 | 74 | 1010.7 |
| 20260503190041 | 82 | 118 | 7.0 | 14.0 | 0.00 | 0.00 | 0.00 | 73 | 1010.9 |
| 20260503185541 | 82 | 98 | 6.0 | 16.0 | 0.00 | 0.00 | 0.00 | 74 | 1011.0 |
| 20260503185042 | 82 | 91 | 4.0 | 16.0 | 0.00 | 0.00 | 0.00 | 73 | 1010.9 |
| 20260503184541 | 82 | 104 | 4.0 | 12.0 | 0.00 | 0.00 | 0.00 | 74 | 1011.1 |
| 20260503184041 | 82 | 95 | 4.0 | 14.0 | 0.00 | 0.00 | 0.00 | 74 | 1010.6 |
| 20260503183541 | 82 | 107 | 5.0 | 14.0 | 0.00 | 0.00 | 0.00 | 74 | 1010.9 |
| 20260503183041 | 82 | 121 | 6.0 | 13.0 | 0.00 | 0.00 | 0.00 | 74 | 1011.0 |
| 20260503182541 | 82 | 119 | 5.0 | 13.0 | 0.00 | 0.00 | 0.00 | 74 | 1010.9 |
| 20260503182041 | 82 | 97 | 3.0 | 15.0 | 0.00 | 0.00 | 0.00 | 74 | 1010.8 |
| 20260503181541 | 82 | 106 | 8.0 | 15.0 | 0.00 | 0.00 | 0.00 | 75 | 1010.9 |
| 20260503181040 | 82 | 107 | 4.0 | 14.0 | 0.00 | 0.00 | 0.00 | 75 | 1010.9 |
| 20260503180541 | 82 | 134 | 5.0 | 14.0 | 0.00 | 0.00 | 0.00 | 75 | 1011.0 |
| 20260503180041 | 82 | 85 | 4.0 | 13.0 | 0.00 | 0.00 | 0.00 | 75 | 1010.8 |
| 20260503175041 | 82 | 108 | 8.0 | 11.0 | 0.00 | 0.00 | 0.00 | 75 | 1010.7 |
| 20260503174541 | 82 | 94 | 4.0 | 13.0 | 0.00 | 0.00 | 0.00 | 75 | 1011.1 |
| 20260503173041 | 82 | 118 | 4.0 | 14.0 | 0.00 | 0.00 | 0.00 | 74 | 1011.0 |
| 20260503172041 | 82 | 119 | 6.0 | 13.0 | 0.00 | 0.00 | 0.00 | 75 | 1011.0 |
| 20260503171541 | 82 | 161 | 3.0 | 13.0 | 0.00 | 0.00 | 0.00 | 74 | 1011.1 |
| 20260503170541 | 82 | 100 | 4.0 | 14.0 | 0.00 | 0.00 | 0.00 | 75 | 1010.9 |
| 20260503150540 | 83 | 91 | 2.0 | 13.0 | 0.00 | 0.00 | 0.00 | 74 | 1011.3 |